Content
SEND FEEDBACK

Daily
Averages
Monthly
Summary
French Polynesia

PAPEETE, FRENCH POLYNESIA


Home > Oceania > French Polynesia
Elevation: 7 feet     Latitude: 17 33S     Longitude: 149 36W

WEATHER
 
SELECT A DAY
Number of Records: 214,112;   Date Range: 6/30/96 - 10/18/14
 
SHARE

PRINT THIS DATA

[ ← Previous Day ]
WEATHER ALMANAC - JANUARY 17, 2014
[ Next Day → ]
[ °C ]   °F
Weather ElementAverageHighLow
Temperature81.9 °F87.8 °F (11:30 am)77 °F (2:30 am)
Dewpoint70.7 °F73.4 °F (9:00 am)66.2 °F (6:30 pm)
Humidity68 %83 % (2:30 am)54 % (11:00 am)
Barometer29.94 in29.99 in (8:00 pm)29.89 in (2:00 pm)
Wind Speed6.5 mph19.6 mph (1:30 pm)
Weather ElementAverage
Visibility8.1 mi
Wind DirectionE (95.2 °)

Weather ElementTotal
Precipitation---
Cooling Degree Days17.4 (Base 65)
Growing Degree Days32.4 (Base 50)
Averaged from 55 records on January 17, 2014
WEATHER CONDITIONS BREAKOUT
WIND DIRECTION BREAKOUT
WEATHER BY HOUR - JANUARY 17, 2014
[ °C ]   °F
Local TimeTemperatureDewpointHumidityBarometerVisibilityWind DirectionWind SpeedGust SpeedPrecipitationEventsConditions
12:30 AM78.8 °F71.6 °F78 %29.95 in6.2 miVariable2.3 mphPartly Cloudy
1:00 AM78.8 °F71.6 °F78 %29.92 in6.2 miEast (90°)2.3 mphPartly Cloudy
1:30 AM78.8 °F71.6 °F78 %29.92 in6.2 miCalmPartly Cloudy
2:00 AM78.0 °F71.0 °F73 %29.93 in16.0 miENE (70°)2.3 mphScattered Clouds
2:00 AM78.8 °F71.6 °F78 %29.92 in6.2 miENE (70°)2.3 mphPartly Cloudy
2:30 AM77.0 °F71.6 °F83 %29.92 in6.2 miEast (90°)3.5 mphPartly Cloudy
3:00 AM77.0 °F71.6 °F83 %29.92 in6.2 miESE (120°)1.2 mphPartly Cloudy
3:30 AM77.0 °F71.6 °F83 %29.92 in6.2 miESE (110°)2.3 mph
4:00 AM77.0 °F71.6 °F83 %29.92 in6.2 miVariable2.3 mph
4:30 AM77.0 °F71.6 °F83 %29.92 in6.2 miEast (80°)3.5 mphPartly Cloudy
5:00 AM77.0 °F71.0 °F76 %29.94 in37.0 miCalmClear
5:00 AM77.0 °F71.6 °F83 %29.92 in6.2 miCalm
5:30 AM77.0 °F71.6 °F83 %29.95 in6.2 miESE (110°)3.5 mph
6:00 AM77.0 °F71.6 °F83 %29.95 in6.2 miCalmPartly Cloudy
6:30 AM77.0 °F71.6 °F83 %29.95 in6.2 miEast (80°)4.6 mphPartly Cloudy
7:00 AM78.8 °F71.6 °F78 %29.95 in6.2 miSSE (160°)4.6 mphScattered Clouds
7:30 AM82.4 °F71.6 °F70 %29.98 in6.2 miVariable3.5 mphPartly Cloudy
8:00 AM84.0 °F71.0 °F57 %29.98 in19.0 miWest (280°)2.3 mphPartly Cloudy
8:00 AM84.2 °F71.6 °F66 %29.98 in6.2 miVariable2.3 mphPartly Cloudy
8:30 AM84.2 °F71.6 °F66 %29.98 in6.2 miWNW (290°)3.5 mphPartly Cloudy
9:00 AM86.0 °F73.4 °F66 %29.98 in6.2 miSW (230°)5.8 mphPartly Cloudy
9:30 AM86.0 °F73.4 °F66 %29.95 in6.2 miWSW (240°)6.9 mphPartly Cloudy
10:00 AM86.0 °F71.6 °F62 %29.95 in6.2 miWSW (240°)8.1 mphScattered Clouds
10:30 AM86.0 °F71.6 °F62 %29.95 in6.2 miSSW (210°)6.9 mphScattered Clouds
11:00 AM86.0 °F72.0 °F54 %29.96 in19.0 miWSW (250°)5.8 mphPartly Cloudy
11:00 AM86.0 °F71.6 °F62 %29.95 in6.2 miWSW (250°)5.8 mphScattered Clouds
11:30 AM87.8 °F71.6 °F58 %29.92 in6.2 miSE (140°)8.1 mphScattered Clouds
12:00 PM86.0 °F71.6 °F62 %29.92 in6.2 miSSW (200°)3.5 mphMostly Cloudy
12:30 PM84.2 °F69.8 °F62 %29.92 in6.2 miSouth (170°)16.1 mphMostly Cloudy
1:00 PM84.2 °F69.8 °F62 %29.92 in6.2 miSouth (190°)5.8 mphMostly Cloudy
1:30 PM84.2 °F71.6 °F66 %29.92 in6.2 miNE (50°)19.6 mphMostly Cloudy
2:00 PM85.0 °F73.0 °F60 %29.91 in19.0 miNE (50°)19.6 mphPartly Cloudy
2:00 PM84.2 °F73.4 °F70 %29.89 in6.2 miNE (50°)19.6 mphScattered Clouds
2:30 PM86.0 °F73.4 °F66 %29.89 in6.2 miNE (50°)16.1 mphScattered Clouds
3:00 PM86.0 °F71.6 °F62 %29.89 in6.2 miENE (60°)16.1 mphScattered Clouds
3:30 PM86.0 °F71.6 °F62 %29.89 in6.2 miVariable9.2 mphScattered Clouds
4:00 PM86.0 °F73.4 °F66 %29.89 in6.2 miVariable4.6 mphScattered Clouds
4:30 PM86.0 °F71.6 °F62 %29.89 in6.2 miNE (50°)13.8 mphScattered Clouds
5:00 PM84.0 °F72.0 °F58 %29.92 in19.0 miSSE (150°)5.8 mphMostly Cloudy
5:00 PM84.2 °F71.6 °F66 %29.92 in6.2 miSSE (150°)5.8 mphMostly Cloudy
5:30 PM84.2 °F69.8 °F62 %29.92 in6.2 miVariable3.5 mphMostly Cloudy
6:00 PM84.2 °F68.0 °F58 %29.92 in6.2 miENE (70°)11.5 mphScattered Clouds
6:30 PM84.2 °F66.2 °F55 %29.95 in6.2 miESE (120°)4.6 mphPartly Cloudy
7:00 PM82.4 °F69.8 °F66 %29.95 in6.2 miSouth (170°)3.5 mphPartly Cloudy
7:30 PM82.4 °F69.8 °F66 %29.95 in6.2 miVariable2.3 mphPartly Cloudy
8:00 PM80.0 °F67.0 °F56 %29.99 in12.0 miENE (70°)17.3 mphScattered Clouds
8:00 PM80.6 °F68.0 °F65 %29.98 in6.2 miENE (70°)17.3 mphPartly Cloudy
8:30 PM80.6 °F66.2 °F61 %29.95 in6.2 miEast (80°)11.5 mphScattered Clouds
9:00 PM80.6 °F68.0 °F65 %29.98 in6.2 miENE (60°)8.1 mphMostly Cloudy
9:30 PM80.6 °F68.0 °F65 %29.95 in6.2 miNE (40°)8.1 mphScattered Clouds
10:00 PM80.6 °F68.0 °F65 %29.98 in6.2 miENE (60°)9.2 mphPartly Cloudy
10:30 PM80.6 °F68.0 °F65 %29.98 in6.2 miVariable3.5 mphScattered Clouds
11:00 PM80.0 °F67.0 °F57 %29.97 in12.0 miENE (60°)3.5 mphScattered Clouds
11:00 PM80.6 °F68.0 °F65 %29.95 in6.2 miENE (60°)3.5 mphPartly Cloudy
11:30 PM78.8 °F68.0 °F69 %29.95 in6.2 miVariable3.5 mphPartly Cloudy
Hourly data recorded from NTAA, located miles away from Papeete, French Polynesia







STORIES FROM OUR PARTNERS